Theta_e
336 339 338 339 340 343 342 343 345 346 351 347 346 346 345 348 345 352 353 357 358 355 354 355 352 352 342 344 350 349 345 344 340 333 337 337 339 342 339 340 340 343 348
335 340 338 337 339 340 344 343 347 347 349 347 347 346 345 349 349 353 358 357 357 356 354 349 352 350 347 348 344 345 342 343 339 335 337 330 330 332 338 339 339 338 344
334 337 337 336 338 338 342 346 348 347 349 346 347 348 349 346 350 348 353 353 358 357 354 354 353 352 352 347 349 347 344 338 341 339 336 328 327 330 336 333 337 338 338
336 337 336 336 335 340 343 348 349 348 347 349 343 343 344 342 347 351 351 354 355 356 356 353 354 354 352 347 348 352 344 341 338 336 336 339 337 329 327 337 338 338 338
336 336 336 338 337 342 341 347 350 348 347 349 344 344 343 344 347 344 348 351 354 357 358 356 355 355 352 351 351 350 347 345 342 338 333 336 337 335 332 326 333 339 339
337 337 338 339 339 342 342 343 349 346 345 346 349 344 342 344 348 346 348 351 354 356 354 355 356 357 354 352 351 351 350 351 350 348 341 333 332 331 333 331 332 333 337
337 337 336 337 338 339 343 342 347 346 345 344 345 350 344 344 347 348 351 348 348 349 353 355 355 354 352 353 354 353 354 353 350 351 345 348 345 338 337 333 332 332 335
337 337 338 338 339 339 342 344 343 347 345 343 343 346 348 345 347 351 348 349 349 349 350 358 357 355 356 354 356 352 354 354 352 350 351 351 349 348 337 336 334 330 331
333 337 339 339 340 340 340 344 343 344 346 346 342 344 351 344 345 347 349 348 348 350 350 356 357 357 355 355 355 352 353 353 352 351 349 351 351 348 349 341 339 333 327
335 337 336 340 341 342 341 344 345 344 347 347 345 343 346 351 348 346 352 349 345 349 353 354 358 355 356 353 355 352 354 352 350 352 353 351 352 350 350 348 343 342 335
336 338 339 338 334 343 343 342 346 345 346 345 348 343 343 350 349 347 343 352 350 356 357 356 355 355 355 356 354 351 353 354 352 352 352 353 351 350 348 350 350 349 342
333 334 336 335 334 333 344 342 347 346 347 347 347 347 343 346 349 346 346 352 349 352 356 356 356 355 353 353 354 353 352 351 352 354 351 351 357 353 349 349 348 349 348
329 330 332 334 333 333 344 345 345 347 349 349 347 347 346 342 345 346 344 349 355 356 358 355 354 352 352 352 353 354 353 351 353 355 354 354 353 352 355 354 352 352 354
328 328 331 330 333 337 343 345 345 349 350 350 349 347 346 347 344 344 343 348 352 352 355 357 354 356 353 353 352 355 354 352 353 355 353 354 355 353 354 356 355 354 353
330 332 334 334 336 340 341 345 347 348 351 351 350 349 348 348 349 346 346 341 353 352 352 354 355 356 357 357 352 352 354 354 353 354 355 354 355 353 353 357 356 356 354
323 324 329 335 338 341 342 343 346 348 351 351 351 351 351 350 349 350 349 346 343 351 354 354 355 355 359 346 343 350 351 354 354 353 353 355 351 350 343 341 343 353 353
321 320 323 327 330 337 339 334 336 340 349 350 352 352 351 351 350 352 351 352 348 346 350 354 356 355 357 340 339 343 353 350 353 353 352 352 355 349 353 345 339 339 337
318 320 321 325 331 337 339 337 337 334 341 348 350 352 353 351 352 351 352 352 354 351 351 353 355 356 358 340 335 338 348 350 349 351 354 353 353 350 348 349 349 350 348
317 318 322 325 328 328 334 341 344 344 344 350 349 352 352 353 353 351 351 353 353 354 352 354 356 356 357 335 334 333 338 345 349 351 351 351 350 343 337 345 345 343 345
316 316 319 324 326 326 328 332 335 339 337 344 354 354 353 353 353 354 353 355 355 353 356 355 355 349 357 336 330 333 351 343 344 348 350 337 347 335 332 347 347 347 350
316 316 318 319 323 325 323 323 327 327 331 334 337 357 355 353 355 355 356 355 355 355 353 354 356 357 355 356 328 323 353 353 348 346 346 350 331 324 322 325 348 346 348
315 314 315 317 322 324 320 318 320 323 326 329 332 353 357 355 356 356 357 356 355 354 354 354 354 357 359 338 331 322 325 343 351 349 350 349 328 322 322 325 330 329 330
313 314 314 316 319 321 320 316 319 323 324 326 331 349 357 356 355 356 356 356 356 355 354 354 354 355 359 361 329 322 320 324 347 354 346 334 325 319 317 317 323 322 332
312 313 313 314 316 318 320 317 320 323 324 325 329 353 356 356 356 358 358 358 357 355 355 354 354 355 356 358 362 345 333 324 330 337 343 332 331 331 338 333 325 326 336
313 313 313 314 316 317 317 316 318 322 322 324 328 340 354 353 357 357 358 358 359 356 356 356 356 354 354 355 345 349 353 349 340 341 347 347 346 347 348 347 348 338 339
311 312 313 316 315 315 314 314 315 319 320 321 325 324 333 343 355 354 350 318 325 321 321 325 345 356 329 327 322 318 323 324 318 338 346 346 347 347 347 346 345 352 345
Wind_Speed
7 14 19 18 14 16 14 12 12 12 8 3 3 1 4 4 2 4 6 6 5 5 5 3 3 3 4 3 3 2 1 1 2 2 3 2 2 6 5 4 5 7 10
15 8 19 20 17 18 14 11 15 12 9 5 3 3 3 2 4 5 5 6 6 6 5 3 1 3 3 4 3 3 1 1 1 3 1 1 4 2 4 3 4 5 5
21 15 17 20 18 20 15 12 16 13 9 8 3 2 1 0 3 4 4 5 7 6 6 4 3 4 2 2 1 2 4 1 2 2 4 1 1 1 3 1 3 4 3
20 18 15 19 20 19 17 13 15 14 9 12 6 5 4 4 3 6 4 5 7 7 7 6 4 3 2 3 1 1 3 3 1 3 1 2 4 3 2 3 3 3 4
28 23 23 20 20 19 19 15 16 15 13 9 10 6 5 4 4 3 7 5 5 7 8 7 6 4 3 3 3 0 2 2 1 2 1 1 1 2 3 2 3 3 4
29 25 23 19 19 19 19 18 17 18 13 11 8 9 9 6 5 5 6 6 4 4 6 6 6 6 4 3 3 3 0 2 1 1 1 2 1 1 2 1 2 3 4
29 26 24 21 20 23 21 19 19 18 16 14 11 8 9 8 6 6 8 7 4 3 6 7 6 5 5 4 3 4 2 2 1 2 0 1 1 1 2 2 1 1 3
28 28 27 24 22 23 22 22 21 19 18 17 13 9 8 6 5 4 5 8 7 7 6 6 7 7 7 5 4 3 3 3 3 3 3 1 3 2 2 3 3 4 3
21 26 27 24 23 22 24 23 22 20 19 18 14 11 7 8 7 8 6 6 7 5 7 8 8 7 7 7 6 4 4 3 4 4 3 2 3 1 3 2 3 5 1
10 6 7 18 23 23 21 22 23 23 20 18 16 13 13 7 7 7 7 7 6 5 10 11 8 7 7 7 7 5 4 5 4 4 4 4 4 3 2 2 2 3 5
16 14 5 5 11 17 22 22 22 22 20 19 17 16 14 9 7 7 8 7 5 6 9 9 7 7 7 7 6 7 6 6 6 5 5 6 6 4 3 1 1 2 2
18 11 8 4 9 12 19 24 22 22 21 20 18 18 15 13 13 9 7 7 7 7 8 11 11 9 8 7 7 7 7 6 7 7 6 7 5 7 5 3 4 3 3
9 6 12 7 13 14 21 21 21 22 22 20 19 17 17 17 14 14 7 9 7 7 8 9 10 9 8 8 7 7 7 7 6 8 7 7 6 5 4 5 5 3 3
9 10 2 14 22 19 21 22 22 21 21 20 20 19 19 18 17 15 13 7 10 8 7 8 9 8 8 8 8 7 7 7 7 7 7 7 7 7 7 6 6 5 4
12 7 5 9 4 12 20 21 21 21 22 21 20 20 18 17 15 16 14 16 8 13 11 7 7 8 8 8 8 8 8 8 8 7 7 8 9 11 11 7 6 6 5
16 16 10 11 6 5 6 8 4 20 21 22 21 19 17 17 17 15 15 15 17 8 13 13 12 10 9 13 15 11 8 9 11 10 8 7 8 11 13 11 9 7 5
16 17 18 11 5 5 3 6 10 15 15 19 20 20 19 18 18 16 15 15 17 17 14 13 13 13 13 14 16 17 11 10 9 10 10 9 9 9 7 10 13 13 14
16 16 14 18 13 13 9 10 13 16 16 15 17 19 18 19 17 17 17 16 14 15 14 14 15 14 12 14 16 16 12 10 13 12 11 12 11 9 8 7 8 9 9
10 11 14 15 14 14 9 5 6 15 23 14 17 17 19 18 17 19 18 15 15 14 15 13 13 15 15 16 17 11 8 11 12 12 12 12 12 12 11 8 9 9 9
7 11 12 14 11 13 14 9 5 7 13 15 9 16 18 18 19 19 19 16 15 15 12 14 15 14 15 14 17 15 10 9 8 9 10 14 14 12 12 10 9 11 13
11 10 9 9 9 10 10 7 8 9 11 15 15 10 16 19 19 18 15 16 15 14 14 14 13 14 14 14 17 18 13 12 10 10 10 10 16 17 14 16 13 15 13
11 9 10 10 7 9 11 13 12 12 13 13 15 12 13 13 12 17 15 15 14 14 14 14 12 11 13 16 16 19 21 16 13 12 11 11 14 17 20 16 18 17 8
11 6 9 10 7 8 8 12 13 14 15 14 15 15 11 14 14 15 15 12 14 12 13 11 12 11 11 12 18 20 21 21 13 12 12 10 10 8 7 13 16 7 5
9 7 8 9 7 7 7 7 11 12 12 15 17 13 11 11 11 11 11 12 12 12 12 13 12 11 11 10 11 10 10 17 13 11 8 7 8 9 7 3 5 5 6
7 8 6 8 7 6 6 7 9 11 11 13 15 14 3 9 9 11 11 12 13 14 13 12 11 11 11 13 13 13 11 11 13 11 8 7 6 8 8 7 5 5 6
6 8 7 6 6 7 7 9 11 11 9 10 10 11 7 7 4 6 5 5 8 15 16 15 12 11 10 13 19 19 18 19 13 5 8 9 9 9 9 8 8 7 9
Wind_Direction
193 167 163 160 147 152 159 146 145 159 149 154 147 183 169 167 125 161 169 176 176 127 102 101 121 119 145 119 104 92 133 278 203 63 352 314 250 227 211 207 184 186 193
197 197 165 162 155 161 158 155 156 160 157 163 160 171 170 190 158 165 181 172 156 142 124 135 120 117 116 120 118 120 62 1 109 125 149 3 335 314 235 213 185 220 172
189 190 177 165 158 164 163 157 160 163 155 171 162 205 151 98 115 167 171 180 152 147 143 161 122 113 112 130 148 119 93 68 316 199 132 52 230 351 321 222 175 182 151
227 182 179 170 169 167 167 154 160 168 167 171 184 168 175 165 176 162 169 168 162 149 153 150 167 157 127 140 198 139 142 124 14 330 164 175 163 137 4 317 281 244 233
218 195 183 174 173 165 171 165 159 169 177 169 182 184 182 177 170 167 157 173 176 161 164 165 170 170 134 160 168 238 176 130 137 164 273 253 1 99 127 289 300 304 256
190 194 188 174 169 169 171 173 164 176 177 180 175 188 190 198 171 169 170 179 165 166 171 163 163 165 156 191 177 174 196 171 224 329 17 104 118 250 78 85 291 218 270
183 188 184 185 174 173 172 177 174 176 182 188 189 189 196 188 190 169 166 164 165 176 185 173 174 171 168 199 205 161 179 232 223 327 22 166 78 218 154 116 302 18 311
183 184 185 184 180 174 174 177 182 179 182 186 195 198 200 191 188 183 164 171 180 194 175 171 170 180 175 184 175 181 201 206 222 269 322 345 322 359 251 154 113 353 335
190 183 186 186 183 178 180 179 180 185 185 188 189 192 201 195 188 196 189 178 180 182 189 174 176 177 183 179 177 189 222 241 223 229 259 274 278 333 309 257 142 147 278
127 113 34 202 184 183 179 179 180 185 186 187 193 194 198 194 177 188 205 186 193 177 182 185 172 178 180 188 175 190 215 200 219 225 241 251 267 268 326 333 276 159 166
242 169 80 2 342 202 178 181 179 184 186 189 188 194 198 198 184 188 204 199 186 147 164 165 171 179 184 187 183 200 207 203 213 235 222 246 259 278 279 288 329 321 171
169 149 130 53 295 306 203 184 177 183 187 186 188 191 194 198 203 198 196 193 205 166 175 177 184 189 191 190 189 195 209 204 209 224 228 239 236 250 260 248 251 243 259
141 130 124 155 260 266 246 190 184 184 185 183 188 189 192 195 201 205 202 199 187 199 175 175 178 180 186 193 198 198 208 211 215 214 217 230 224 233 238 247 260 262 264
90 35 280 181 226 248 262 200 188 180 182 185 185 190 194 196 198 201 205 203 200 190 190 179 186 182 187 192 196 195 206 217 219 221 222 220 219 225 233 230 232 243 256
46 6 314 198 263 302 267 214 186 183 181 184 189 193 192 195 192 197 195 204 201 206 204 191 192 191 190 200 197 202 199 208 226 229 226 228 224 218 223 227 230 223 234
30 19 40 108 125 346 326 39 270 187 179 186 190 191 188 192 195 195 196 197 209 197 201 202 204 203 210 208 199 198 202 207 214 229 238 236 238 244 242 239 232 206 204
20 11 4 17 29 82 26 50 11 346 214 184 188 189 189 189 195 192 195 200 204 210 208 205 204 210 215 209 207 204 211 210 215 218 228 240 243 231 234 243 247 249 237
11 9 356 346 14 6 39 23 356 321 323 214 186 188 187 192 191 195 197 200 200 206 209 211 209 212 215 205 211 211 217 214 220 219 213 221 234 230 221 238 250 251 248
12 4 352 345 14 7 16 18 42 314 266 220 185 187 188 188 189 196 200 199 202 203 209 210 209 212 220 207 211 193 206 222 223 222 224 221 230 232 217 225 245 260 257
355 10 359 353 360 7 357 1 359 297 342 346 219 183 184 189 191 193 196 197 202 210 205 210 214 212 220 207 209 199 218 220 225 223 228 219 221 206 207 220 229 247 254
340 359 355 357 347 359 354 347 336 346 331 327 321 204 188 189 192 190 190 195 200 204 211 216 216 217 215 218 206 200 214 223 222 229 228 228 221 228 225 219 235 238 252
334 348 345 334 345 1 357 346 351 338 336 330 312 263 188 191 187 188 188 192 196 203 209 213 217 219 218 215 209 203 206 216 221 226 229 233 212 220 228 231 236 245 246
331 338 338 322 345 11 1 339 334 339 336 328 314 281 187 187 185 186 189 189 193 199 208 209 214 219 217 219 212 203 207 220 218 230 230 220 192 195 221 234 243 232 219
306 332 324 315 343 0 354 329 327 331 341 334 322 265 193 179 185 184 189 191 196 203 206 209 212 215 220 219 211 211 211 226 220 242 230 189 193 204 209 235 198 203 209
313 309 306 317 334 342 352 338 332 333 354 350 339 330 207 183 187 190 187 197 204 203 207 213 212 215 218 218 210 201 203 210 215 209 224 229 228 244 251 249 222 195 204
309 307 303 308 3 346 336 339 338 342 353 1 340 338 339 2 229 199 203 52 230 203 206 200 209 218 240 218 208 217 203 198 178 176 205 216 222 227 232 232 232 208 203